This is the latest recevied weather packets stored in our database for station/object WA1TYB-13. If no packets are shown the sender has not sent any weather packets the latest 10 day(s).
| Time | Temp. | Humidity | Pressure | Rain* | Wind** | Luminosity | Snow |
|---|---|---|---|---|---|---|---|
| 1777301001 | -1.11° C | 67% | 1017.2 hPa | 0 mm | - | 115 W/m² | - |
| 1777300699 | -1.11° C | 68% | 1017.4 hPa | 0 mm | - | 110 W/m² | - |
| 1777300396 | -1.11° C | 67% | 1017.1 hPa | 0 mm | - | 108 W/m² | - |
| 1777300094 | -1.11° C | 67% | 1017.1 hPa | 0 mm | - | 105 W/m² | - |
| 1777299790 | -1.11° C | 67% | 1017.4 hPa | 0 mm | - | 95 W/m² | - |
| 1777299487 | -1.67° C | 68% | 1017.2 hPa | 0 mm | - | 87 W/m² | - |
| 1777299185 | -1.67° C | 68% | 1017.4 hPa | 0 mm | - | 80 W/m² | - |
| 1777298882 | -1.67° C | 68% | 1017.1 hPa | 0 mm | - | 70 W/m² | - |
| 1777298579 | -1.67° C | 68% | 1017.4 hPa | 0 mm | - | 62 W/m² | - |
| 1777298275 | -1.67° C | 69% | 1017.1 hPa | 0 mm | - | 59 W/m² | - |
| 1777297970 | -1.67° C | 69% | 1017.2 hPa | 0 mm | - | 51 W/m² | - |
| 1777297667 | -1.67° C | 69% | 1017 hPa | 0 mm | - | 44 W/m² | - |
| 1777297365 | -1.67° C | 69% | 1017.1 hPa | 0 mm | - | 40 W/m² | - |
| 1777297061 | -1.67° C | 70% | 1017 hPa | 0 mm | - | 36 W/m² | - |
| 1777296758 | -1.67° C | 70% | 1017.1 hPa | 0 mm | - | 31 W/m² | - |
| 1777296454 | -1.67° C | 71% | 1017 hPa | 0 mm | - | 26 W/m² | - |
| 1777296150 | -1.67° C | 71% | 1017.1 hPa | 0 mm | - | 23 W/m² | - |
| 1777295846 | -1.67° C | 71% | 1017.1 hPa | 0 mm | - | 22 W/m² | - |
| 1777295544 | -1.67° C | 71% | 1016.9 hPa | 0 mm | - | 19 W/m² | - |
| 1777295241 | -1.67° C | 71% | 1017.1 hPa | 0 mm | - | 16 W/m² | - |
| 1777294940 | -1.67° C | 71% | 1016.9 hPa | 0 mm | - | 14 W/m² | - |
| 1777294634 | -1.67° C | 70% | 1017 hPa | 0 mm | - | 12 W/m² | - |
| 1777294331 | -1.67° C | 71% | 1017.1 hPa | 0 mm | - | 9 W/m² | - |
| 1777294027 | -1.67° C | 71% | 1016.9 hPa | 0 mm | - | 6 W/m² | - |
| 1777293724 | -1.67° C | 71% | 1016.9 hPa | 0 mm | - | 5 W/m² | - |
* Rain latest hour (hover to see other rain measurements)
** Current wind speed in m/s (hover to see current wind gust speed)